Voltar ao catálogo

COSMOS 1317 DEB

LostHEO
NORAD 14735·DEBRIS·🇷🇺 Russia

Lançado Oct 31, 1981 de Plesetsk Cosmodrome

Loading…

Próximas Passagens (próximas 24 horas)

TLE

ObsoletoSource: Space-Track

Época: Oct 24, 2024, 05:52 UTC

1 14735U 81108F   24298.24465617  .00000117  00000-0  00000+0 0  9996
2 14735  71.3593 110.5892 4907150 339.9958 234.0573  2.01436638282322

Acompanhe COSMOS 1317 DEB em tempo real com AllMySat

Download on the App Store